• In Kazakhstan
  • List of Countries
  • For 7 days
  • Water Temperature
  • Satellite Maps
  • Weather Map
  • News
  • Weather Widgets
  • user-avatar
    Login

    Hourly Weather Korçe

    Today, 22 March, Friday

    Time Temperature Precipitation Wind Pressure Humidity
    00:00 +4°C° 0 mm 2 mps 671 mmHg 85%
    01:00 +3°C° 0 mm 3 mps 671 mmHg 84%
    02:00 +3°C° 0 mm 2 mps 671 mmHg 85%
    03:00 +3°C° 0 mm 2 mps 671 mmHg 86%
    04:00 +3°C° 0 mm 2 mps 671 mmHg 87%
    05:00 +3°C° 0 mm 2 mps 671 mmHg 86%
    06:00 +4°C° 0 mm 2 mps 671 mmHg 85%
    07:00 +5°C° 0 mm 2 mps 672 mmHg 84%
    08:00 +5°C° 0 mm 3 mps 672 mmHg 75%
    09:00 +8°C° 0 mm 3 mps 672 mmHg 66%
    10:00 +10°C° 0 mm 3 mps 673 mmHg 57%
    11:00 +11°C° 0 mm 3 mps 673 mmHg 54%
    12:00 +12°C° 0 mm 3 mps 673 mmHg 50%
    13:00 +12°C° 0 mm 3 mps 673 mmHg 47%
    14:00 +12°C° 0 mm 3 mps 672 mmHg 47%
    15:00 +12°C° 0 mm 3 mps 672 mmHg 48%
    16:00 +12°C° 0 mm 3 mps 671 mmHg 48%
    17:00 +10°C° 0 mm 2 mps 671 mmHg 55%
    18:00 +9°C° 0 mm 2 mps 671 mmHg 61%
    19:00 +7°C° 0 mm 2 mps 670 mmHg 68%
    20:00 +6°C° 0 mm 2 mps 670 mmHg 71%
    21:00 +6°C° 0 mm 2 mps 670 mmHg 73%
    22:00 +5°C° 0 mm 2 mps 670 mmHg 76%
    23:00 +5°C° 0 mm 2 mps 670 mmHg 78%

    Tomorrow, 23 March, Saturday

    Time Temperature Precipitation Wind Pressure Humidity
    00:00 +5°C° 0 mm 2 mps 670 mmHg 79%
    01:00 +4°C° 0 mm 2 mps 670 mmHg 81%
    02:00 +4°C° 0 mm 2 mps 670 mmHg 81%
    03:00 +4°C° 0 mm 2 mps 669 mmHg 82%
    04:00 +4°C° 0 mm 2 mps 669 mmHg 82%
    05:00 +4°C° 0 mm 2 mps 669 mmHg 80%
    06:00 +5°C° 0 mm 2 mps 669 mmHg 77%
    07:00 +5°C° 0 mm 2 mps 670 mmHg 75%
    08:00 +7°C° 0 mm 2 mps 670 mmHg 66%
    09:00 +9°C° 0 mm 2 mps 670 mmHg 57%
    10:00 +11°C° 0 mm 3 mps 671 mmHg 49%
    11:00 +12°C° 0 mm 3 mps 671 mmHg 46%
    12:00 +13°C° 0 mm 3 mps 671 mmHg 44%
    13:00 +14°C° 0 mm 3 mps 671 mmHg 41%
    14:00 +14°C° 0 mm 3 mps 670 mmHg 42%
    15:00 +15°C° 0 mm 2 mps 670 mmHg 43%
    16:00 +15°C° 0 mm 2 mps 670 mmHg 44%
    17:00 +13°C° 0 mm 2 mps 669 mmHg 51%
    18:00 +10°C° 0 mm 2 mps 669 mmHg 57%
    19:00 +8°C° 0 mm 2 mps 669 mmHg 63%
    20:00 +8°C° 0 mm 2 mps 669 mmHg 65%
    21:00 +7°C° 0 mm 2 mps 669 mmHg 67%
    22:00 +7°C° 0 mm 2 mps 669 mmHg 69%
    23:00 +6°C° 0 mm 2 mps 669 mmHg 70%

    Day after tomorrow, 24 March, Sunday

    Time Temperature Precipitation Wind Pressure Humidity
    00:00 +6°C° 0 mm 2 mps 669 mmHg 71%
    01:00 +6°C° 0 mm 2 mps 669 mmHg 72%
    02:00 +5°C° 0 mm 2 mps 668 mmHg 72%
    03:00 +5°C° 0 mm 2 mps 668 mmHg 73%
    04:00 +5°C° 0 mm 2 mps 668 mmHg 74%
    05:00 +5°C° 0 mm 2 mps 668 mmHg 73%
    06:00 +6°C° 0 mm 2 mps 669 mmHg 72%
    07:00 +6°C° 0 mm 2 mps 669 mmHg 71%
    08:00 +8°C° 0 mm 2 mps 669 mmHg 63%
    09:00 +10°C° 0 mm 2 mps 670 mmHg 54%
    10:00 +13°C° 0 mm 2 mps 670 mmHg 46%
    11:00 +14°C° 0 mm 2 mps 670 mmHg 43%
    12:00 +15°C° 0 mm 2 mps 670 mmHg 39%
    13:00 +16°C° 0 mm 2 mps 670 mmHg 36%
    14:00 +16°C° 0 mm 2 mps 670 mmHg 37%
    15:00 +15°C° 0 mm 2 mps 670 mmHg 39%
    16:00 +14°C° 0 mm 3 mps 669 mmHg 41%
    17:00 +13°C° 0 mm 2 mps 669 mmHg 49%
    18:00 +10°C° 0 mm 2 mps 668 mmHg 57%
    19:00 +8°C° 0 mm 2 mps 668 mmHg 65%
    20:00 +9°C° 0 mm 1 mps 668 mmHg 66%
    21:00 +8°C° 0 mm 1 mps 668 mmHg 66%
    22:00 +8°C° 0 mm 1 mps 668 mmHg 67%
    23:00 +8°C° 0 mm 1 mps 668 mmHg 67%

    25 March, Monday

    Time Temperature Precipitation Wind Pressure Humidity
    00:00 +7°C° 0 mm 1 mps 667 mmHg 67%
    01:00 +7°C° 0 mm 1 mps 667 mmHg 67%
    02:00 +7°C° 0 mm 1 mps 667 mmHg 67%
    03:00 +6°C° 0 mm 0 mps 667 mmHg 68%
    04:00 +5°C° 0 mm 0 mps 666 mmHg 68%
    05:00 +6°C° 0 mm 0 mps 667 mmHg 66%
    06:00 +8°C° 0 mm 1 mps 667 mmHg 63%
    07:00 +9°C° 0 mm 1 mps 667 mmHg 61%
    08:00 +11°C° 0 mm 1 mps 668 mmHg 56%
    09:00 +12°C° 0 mm 1 mps 668 mmHg 51%
    10:00 +14°C° 0 mm 1 mps 669 mmHg 45%
    11:00 +15°C° 0 mm 2 mps 668 mmHg 44%
    12:00 +15°C° 0 mm 2 mps 668 mmHg 42%
    13:00 +16°C° 0 mm 2 mps 668 mmHg 40%
    14:00 +15°C° 0 mm 2 mps 667 mmHg 44%
    15:00 +15°C° 0 mm 2 mps 666 mmHg 48%
    16:00 +14°C° 0 mm 2 mps 666 mmHg 51%
    17:00 +13°C° 0.1 mm 2 mps 666 mmHg 62%
    18:00 +10°C° 0.1 mm 2 mps 665 mmHg 73%
    19:00 +9°C° 0.1 mm 1 mps 665 mmHg 84%
    20:00 +9°C° 0.1 mm 1 mps 665 mmHg 86%
    21:00 +8°C° 0.1 mm 1 mps 665 mmHg 88%
    22:00 +7°C° 0.1 mm 1 mps 664 mmHg 90%
    23:00 +7°C° 0 mm 1 mps 664 mmHg 88%

    26 March, Tuesday

    Time Temperature Precipitation Wind Pressure Humidity
    00:00 +6°C° 0 mm 0 mps 664 mmHg 87%
    01:00 +5°C° 0 mm 0 mps 664 mmHg 85%
    02:00 +5°C° 0 mm 0 mps 664 mmHg 84%
    03:00 +5°C° 0 mm 0 mps 663 mmHg 84%
    04:00 +5°C° 0 mm 1 mps 663 mmHg 83%
    05:00 +6°C° 0 mm 1 mps 663 mmHg 81%
    06:00 +7°C° 0 mm 1 mps 663 mmHg 79%
    07:00 +7°C° 0 mm 1 mps 664 mmHg 77%
    08:00 +8°C° 0.1 mm 1 mps 664 mmHg 71%
    09:00 +9°C° 0.1 mm 2 mps 664 mmHg 65%
    10:00 +10°C° 0.1 mm 2 mps 664 mmHg 59%
    11:00 +9°C° 1.1 mm 2 mps 664 mmHg 63%
    12:00 +9°C° 1.1 mm 2 mps 663 mmHg 67%
    13:00 +8°C° 1.1 mm 2 mps 663 mmHg 71%
    14:00 +7°C° 2.5 mm 2 mps 663 mmHg 77%
    15:00 +6°C° 2.5 mm 2 mps 662 mmHg 83%
    16:00 +5°C° 2.5 mm 2 mps 662 mmHg 89%
    17:00 +4°C° 1.3 mm 2 mps 662 mmHg 89%
    18:00 +2°C° 1.3 mm 3 mps 662 mmHg 88%
    19:00 0°C° 1.3 mm 3 mps 662 mmHg 88%
    20:00 0°C° 0.5 mm 3 mps 661 mmHg 86%
    21:00 -1°C° 0.5 mm 3 mps 661 mmHg 85%
    22:00 -1°C° 0.5 mm 3 mps 661 mmHg 84%
    23:00 -1°C° 0.4 mm 3 mps 661 mmHg 85%

    27 March, Wednesday

    Time Temperature Precipitation Wind Pressure Humidity
    00:00 -1°C° 0.4 mm 3 mps 661 mmHg 86%
    01:00 -2°C° 0.4 mm 3 mps 661 mmHg 87%
    02:00 -2°C° 0.4 mm 3 mps 661 mmHg 88%
    03:00 -2°C° 0.4 mm 3 mps 661 mmHg 88%
    04:00 -2°C° 0.4 mm 3 mps 661 mmHg 89%
    05:00 -1°C° 0.2 mm 3 mps 662 mmHg 88%
    06:00 -1°C° 0.2 mm 3 mps 662 mmHg 87%
    07:00 -1°C° 0.2 mm 3 mps 663 mmHg 86%
    08:00 -1°C° 0.1 mm 4 mps 664 mmHg 84%
    09:00 0°C° 0.1 mm 4 mps 665 mmHg 82%
    10:00 +1°C° 0.1 mm 5 mps 666 mmHg 80%
    11:00 +2°C° 0 mm 5 mps 666 mmHg 78%
    12:00 +2°C° 0 mm 5 mps 666 mmHg 77%
    13:00 +3°C° 0 mm 5 mps 666 mmHg 75%
    14:00 +4°C° 0 mm 4 mps 667 mmHg 75%
    15:00 +4°C° 0 mm 4 mps 667 mmHg 74%
    16:00 +4°C° 0 mm 4 mps 667 mmHg 74%
    17:00 +3°C° 0 mm 3 mps 667 mmHg 77%
    18:00 +2°C° 0 mm 3 mps 668 mmHg 81%
    19:00 +2°C° 0 mm 2 mps 668 mmHg 84%
    20:00 +1°C° 0 mm 2 mps 668 mmHg 85%
    21:00 +1°C° 0 mm 2 mps 668 mmHg 86%
    22:00 -1°C° 0 mm 2 mps 668 mmHg 86%
    23:00 -1°C° 0 mm 2 mps 668 mmHg 86%
    Show more